| time (UTC) | temp F | wind direction | speed MPH | gust MPH | rain 1hr in | rain 24hr in | rain mn in | humidity % | barometer mb |
| 20260508130547 | 57 | 225 | 3.0 | 9.0 | 0.00 | 0.00 | 0.00 | 71 | 1014.0 |
| 20260508130051 | 56 | 161 | 2.0 | 9.0 | 0.00 | 0.00 | 0.00 | 73 | 1013.9 |
| 20260508125543 | 56 | 167 | 2.0 | 6.0 | 0.00 | 0.00 | 0.00 | 73 | 1013.8 |
| 20260508125042 | 55 | 204 | 2.0 | 6.0 | 0.00 | 0.00 | 0.00 | 73 | 1013.8 |
| 20260508124553 | 55 | 197 | 2.0 | 7.0 | 0.00 | 0.00 | 0.00 | 73 | 1013.8 |
| 20260508124042 | 55 | 212 | 2.0 | 9.0 | 0.00 | 0.00 | 0.00 | 73 | 1013.7 |
| 20260508123542 | 54 | 152 | 1.0 | 9.0 | 0.00 | 0.00 | 0.00 | 74 | 1013.6 |
| 20260508123052 | 54 | 163 | 1.0 | 6.0 | 0.00 | 0.00 | 0.00 | 74 | 1013.6 |
| 20260508122542 | 53 | 144 | 2.0 | 6.0 | 0.00 | 0.00 | 0.00 | 75 | 1013.6 |
| 20260508122041 | 53 | 152 | 1.0 | 5.0 | 0.00 | 0.00 | 0.00 | 76 | 1013.6 |
| 20260508121552 | 52 | 199 | 1.0 | 5.0 | 0.00 | 0.00 | 0.00 | 77 | 1013.6 |
| 20260508121041 | 52 | 0 | 1.0 | 4.0 | 0.00 | 0.00 | 0.00 | 77 | 1013.6 |
| 20260508120542 | 51 | 218 | 1.0 | 4.0 | 0.00 | 0.00 | 0.00 | 77 | 1013.6 |
| 20260508120111 | 51 | 0 | 0.0 | 3.0 | 0.00 | 0.00 | 0.00 | 77 | 1013.6 |
| 20260508115546 | 51 | 0 | 0.0 | 5.0 | 0.00 | 0.00 | 0.00 | 78 | 1013.6 |
| 20260508115045 | 50 | 192 | 0.0 | 5.0 | 0.00 | 0.00 | 0.00 | 78 | 1013.6 |
| 20260508114602 | 50 | 0 | 1.0 | 5.0 | 0.00 | 0.00 | 0.00 | 77 | 1013.7 |
| 20260508114042 | 50 | 151 | 1.0 | 4.0 | 0.00 | 0.00 | 0.00 | 78 | 1013.6 |
| 20260508113543 | 50 | 0 | 0.0 | 4.0 | 0.00 | 0.00 | 0.00 | 78 | 1013.5 |
| 20260508113046 | 50 | 194 | 0.0 | 4.0 | 0.00 | 0.00 | 0.00 | 78 | 1013.5 |
| 20260508112545 | 50 | 190 | 0.0 | 4.0 | 0.00 | 0.00 | 0.00 | 78 | 1013.5 |
| 20260508112042 | 50 | 193 | 0.0 | 4.0 | 0.00 | 0.00 | 0.00 | 78 | 1013.4 |
| 20260508111552 | 49 | 151 | 0.0 | 5.0 | 0.00 | 0.00 | 0.00 | 78 | 1013.3 |
| 20260508111043 | 49 | 0 | 0.0 | 5.0 | 0.00 | 0.00 | 0.00 | 78 | 1013.3 |
| 20260508110541 | 49 | 138 | 0.0 | 5.0 | 0.00 | 0.00 | 0.00 | 78 | 1013.2 |
| 20260508105542 | 49 | 138 | 0.0 | 3.0 | 0.00 | 0.00 | 0.00 | 79 | 1013.1 |
| 20260508105043 | 49 | 143 | 0.0 | 4.0 | 0.00 | 0.00 | 0.00 | 79 | 1013.1 |
| 20260508104550 | 49 | 0 | 0.0 | 6.0 | 0.00 | 0.00 | 0.00 | 79 | 1013.0 |
| 20260508104042 | 49 | 0 | 1.0 | 6.0 | 0.00 | 0.00 | 0.00 | 79 | 1013.1 |
| 20260508103543 | 49 | 0 | 0.0 | 4.0 | 0.00 | 0.00 | 0.00 | 79 | 1013.0 |
| 20260508103050 | 49 | 152 | 0.0 | 3.0 | 0.00 | 0.00 | 0.00 | 80 | 1013.0 |
| 20260508102542 | 49 | 0 | 0.0 | 3.0 | 0.00 | 0.00 | 0.00 | 80 | 1013.2 |
| 20260508102043 | 48 | 0 | 0.0 | 3.0 | 0.00 | 0.00 | 0.00 | 80 | 1013.1 |
| 20260508101551 | 48 | 0 | 0.0 | 3.0 | 0.00 | 0.00 | 0.00 | 80 | 1013.1 |
| 20260508101042 | 48 | 159 | 0.0 | 1.0 | 0.00 | 0.00 | 0.00 | 81 | 1013.2 |
| 20260508100545 | 48 | 153 | 0.0 | 0.0 | 0.00 | 0.00 | 0.00 | 81 | 1013.3 |
| 20260508100120 | 48 | 0 | 0.0 | 0.0 | 0.00 | 0.00 | 0.00 | 82 | 1013.3 |
| 20260508095542 | 48 | 0 | 0.0 | 0.0 | 0.00 | 0.00 | 0.00 | 82 | 1013.3 |
| 20260508095042 | 48 | 0 | 0.0 | 0.0 | 0.00 | 0.00 | 0.00 | 81 | 1013.3 |
| 20260508094552 | 48 | 0 | 0.0 | 0.0 | 0.00 | 0.00 | 0.00 | 81 | 1013.3 |
| 20260508094041 | 48 | 0 | 0.0 | 0.0 | 0.00 | 0.00 | 0.00 | 81 | 1013.2 |
| 20260508093544 | 48 | 0 | 0.0 | 1.0 | 0.00 | 0.00 | 0.00 | 81 | 1013.2 |
| 20260508093051 | 48 | 0 | 0.0 | 1.0 | 0.00 | 0.00 | 0.00 | 81 | 1013.2 |
| 20260508092542 | 48 | 0 | 0.0 | 2.0 | 0.00 | 0.00 | 0.00 | 80 | 1013.2 |
| 20260508092043 | 48 | 161 | 0.0 | 2.0 | 0.00 | 0.00 | 0.00 | 79 | 1013.2 |
| 20260508091608 | 49 | 137 | 0.0 | 2.0 | 0.00 | 0.00 | 0.00 | 79 | 1013.2 |
| 20260508091042 | 49 | 0 | 0.0 | 2.0 | 0.00 | 0.00 | 0.00 | 79 | 1013.3 |
| 20260508090543 | 49 | 0 | 0.0 | 1.0 | 0.00 | 0.00 | 0.00 | 79 | 1013.3 |
| 20260508090053 | 49 | 0 | 0.0 | 2.0 | 0.00 | 0.00 | 0.00 | 78 | 1013.3 |
| 20260508085541 | 49 | 0 | 0.0 | 2.0 | 0.00 | 0.00 | 0.00 | 78 | 1013.3 |
| 20260508085041 | 49 | 146 | 0.0 | 2.0 | 0.00 | 0.00 | 0.00 | 78 | 1013.3 |
| 20260508084554 | 49 | 139 | 0.0 | 2.0 | 0.00 | 0.00 | 0.00 | 78 | 1013.3 |
| 20260508084044 | 49 | 0 | 0.0 | 2.0 | 0.00 | 0.00 | 0.00 | 78 | 1013.4 |
| 20260508083541 | 49 | 128 | 0.0 | 2.0 | 0.00 | 0.00 | 0.00 | 78 | 1013.3 |
| 20260508083051 | 49 | 0 | 0.0 | 2.0 | 0.00 | 0.00 | 0.00 | 78 | 1013.4 |
| 20260508082544 | 49 | 154 | 0.0 | 2.0 | 0.00 | 0.00 | 0.00 | 78 | 1013.5 |
| 20260508082042 | 49 | 144 | 0.0 | 1.0 | 0.00 | 0.00 | 0.00 | 77 | 1013.6 |
| 20260508081610 | 49 | 0 | 0.0 | 2.0 | 0.00 | 0.00 | 0.00 | 77 | 1013.6 |
| 20260508081042 | 49 | 0 | 0.0 | 2.0 | 0.00 | 0.00 | 0.00 | 77 | 1013.6 |
| 20260508080541 | 49 | 157 | 0.0 | 4.0 | 0.00 | 0.00 | 0.00 | 77 | 1013.5 |
| 20260508080052 | 49 | 142 | 0.0 | 4.0 | 0.00 | 0.00 | 0.00 | 77 | 1013.6 |
| 20260508075542 | 49 | 134 | 1.0 | 4.0 | 0.00 | 0.00 | 0.00 | 77 | 1013.6 |
| 20260508075041 | 49 | 148 | 1.0 | 5.0 | 0.00 | 0.00 | 0.00 | 77 | 1013.8 |
| 20260508074554 | 49 | 150 | 1.0 | 5.0 | 0.00 | 0.00 | 0.00 | 78 | 1013.7 |
| 20260508074042 | 49 | 145 | 1.0 | 5.0 | 0.00 | 0.00 | 0.00 | 78 | 1013.9 |
| 20260508073546 | 49 | 150 | 0.0 | 2.0 | 0.00 | 0.00 | 0.00 | 79 | 1013.9 |
| 20260508073052 | 49 | 148 | 0.0 | 1.0 | 0.00 | 0.00 | 0.00 | 79 | 1014.0 |
| 20260508072541 | 49 | 151 | 0.0 | 2.0 | 0.00 | 0.00 | 0.00 | 78 | 1014.0 |
| 20260508072041 | 49 | 148 | 0.0 | 2.0 | 0.00 | 0.00 | 0.00 | 78 | 1014.1 |
| 20260508071552 | 49 | 146 | 0.0 | 2.0 | 0.00 | 0.00 | 0.00 | 78 | 1014.1 |
| 20260508071044 | 48 | 138 | 0.0 | 1.0 | 0.00 | 0.00 | 0.00 | 79 | 1014.1 |
| 20260508070547 | 48 | 0 | 0.0 | 1.0 | 0.00 | 0.00 | 0.00 | 79 | 1014.2 |
| 20260508070051 | 48 | 0 | 0.0 | 1.0 | 0.00 | 0.00 | 0.00 | 79 | 1014.2 |
| 20260508065542 | 48 | 0 | 0.0 | 0.0 | 0.00 | 0.00 | 0.00 | 79 | 1014.2 |
| 20260508065047 | 48 | 0 | 0.0 | 0.0 | 0.00 | 0.00 | 0.00 | 79 | 1014.2 |
| 20260508064556 | 48 | 0 | 0.0 | 0.0 | 0.00 | 0.00 | 0.00 | 78 | 1014.2 |
| 20260508064042 | 48 | 0 | 0.0 | 0.0 | 0.00 | 0.00 | 0.00 | 78 | 1014.2 |
| 20260508063542 | 48 | 0 | 0.0 | 0.0 | 0.00 | 0.00 | 0.00 | 79 | 1014.2 |
| 20260508063056 | 48 | 0 | 0.0 | 0.0 | 0.00 | 0.00 | 0.00 | 79 | 1014.3 |
| 20260508062543 | 48 | 0 | 0.0 | 0.0 | 0.00 | 0.00 | 0.00 | 79 | 1014.3 |
| 20260508062044 | 48 | 0 | 0.0 | 0.0 | 0.00 | 0.00 | 0.00 | 79 | 1014.3 |
| 20260508061557 | 48 | 0 | 0.0 | 0.0 | 0.00 | 0.00 | 0.00 | 79 | 1014.4 |
| 20260508061044 | 48 | 0 | 0.0 | 0.0 | 0.00 | 0.00 | 0.00 | 78 | 1014.5 |
| 20260508060543 | 48 | 0 | 0.0 | 0.0 | 0.00 | 0.00 | 0.00 | 78 | 1014.5 |
| 20260508060112 | 49 | 0 | 0.0 | 0.0 | 0.00 | 0.00 | 0.00 | 77 | 1014.6 |
| 20260508055545 | 49 | 0 | 0.0 | 0.0 | 0.00 | 0.00 | 0.00 | 77 | 1014.5 |
| 20260508055044 | 49 | 0 | 0.0 | 0.0 | 0.00 | 0.00 | 0.00 | 77 | 1014.6 |
| 20260508054639 | 49 | 0 | 0.0 | 0.0 | 0.00 | 0.00 | 0.00 | 77 | 1014.7 |
| 20260508054042 | 49 | 0 | 0.0 | 0.0 | 0.00 | 0.00 | 0.00 | 77 | 1014.6 |
| 20260508053543 | 49 | 0 | 0.0 | 0.0 | 0.00 | 0.00 | 0.00 | 77 | 1014.5 |
| 20260508053056 | 49 | 0 | 0.0 | 0.0 | 0.00 | 0.00 | 0.00 | 77 | 1014.6 |
| 20260508052543 | 49 | 163 | 0.0 | 0.0 | 0.00 | 0.00 | 0.00 | 77 | 1014.6 |
| 20260508052042 | 49 | 0 | 0.0 | 1.0 | 0.00 | 0.00 | 0.00 | 77 | 1014.7 |
| 20260508051555 | 49 | 0 | 0.0 | 1.0 | 0.00 | 0.00 | 0.00 | 76 | 1014.7 |
| 20260508051044 | 49 | 0 | 0.0 | 1.0 | 0.00 | 0.00 | 0.00 | 76 | 1014.7 |
| 20260508050544 | 50 | 0 | 0.0 | 1.0 | 0.00 | 0.00 | 0.00 | 76 | 1014.8 |
| 20260508050057 | 50 | 0 | 0.0 | 1.0 | 0.00 | 0.00 | 0.00 | 75 | 1014.8 |
| 20260508045543 | 50 | 0 | 0.0 | 1.0 | 0.00 | 0.00 | 0.00 | 75 | 1014.9 |
| 20260508045043 | 50 | 0 | 0.0 | 1.0 | 0.00 | 0.00 | 0.00 | 75 | 1014.9 |
| 20260508044552 | 50 | 0 | 0.0 | 0.0 | 0.00 | 0.00 | 0.00 | 75 | 1014.9 |
| 20260508044044 | 50 | 0 | 0.0 | 1.0 | 0.00 | 0.00 | 0.00 | 75 | 1014.9 |
| 20260508043543 | 50 | 0 | 0.0 | 1.0 | 0.00 | 0.00 | 0.00 | 74 | 1015.1 |
| 20260508043102 | 50 | 0 | 0.0 | 1.0 | 0.00 | 0.00 | 0.00 | 74 | 1015.1 |
| 20260508042543 | 50 | 0 | 0.0 | 0.0 | 0.00 | 0.00 | 0.00 | 74 | 1015.1 |
| 20260508042043 | 50 | 0 | 0.0 | 0.0 | 0.00 | 0.00 | 0.00 | 74 | 1015.3 |
| 20260508041553 | 50 | 0 | 0.0 | 0.0 | 0.00 | 0.00 | 0.00 | 74 | 1015.4 |
| 20260508041044 | 51 | 0 | 0.0 | 1.0 | 0.00 | 0.00 | 0.00 | 74 | 1015.4 |
| 20260508040544 | 51 | 0 | 0.0 | 1.0 | 0.00 | 0.00 | 0.00 | 73 | 1015.5 |
| 20260508040056 | 51 | 119 | 0.0 | 0.0 | 0.00 | 0.00 | 0.00 | 73 | 1015.5 |
| 20260508035544 | 51 | 0 | 0.0 | 0.0 | 0.00 | 0.00 | 0.00 | 73 | 1015.4 |
| 20260508035044 | 51 | 0 | 0.0 | 0.0 | 0.00 | 0.00 | 0.00 | 73 | 1015.6 |
| 20260508034556 | 51 | 0 | 0.0 | 0.0 | 0.00 | 0.00 | 0.00 | 73 | 1015.5 |
| 20260508034043 | 51 | 0 | 0.0 | 0.0 | 0.00 | 0.00 | 0.00 | 72 | 1015.5 |
| 20260508033543 | 51 | 0 | 0.0 | 0.0 | 0.00 | 0.00 | 0.00 | 72 | 1015.6 |
| 20260508033053 | 52 | 0 | 0.0 | 1.0 | 0.00 | 0.00 | 0.00 | 70 | 1015.5 |
| 20260508032547 | 52 | 0 | 0.0 | 1.0 | 0.00 | 0.00 | 0.00 | 70 | 1015.6 |
| 20260508032044 | 52 | 150 | 0.0 | 1.0 | 0.00 | 0.00 | 0.00 | 70 | 1015.5 |
| 20260508031556 | 52 | 0 | 0.0 | 0.0 | 0.00 | 0.00 | 0.00 | 70 | 1015.5 |
| 20260508031042 | 52 | 136 | 0.0 | 0.0 | 0.00 | 0.00 | 0.00 | 70 | 1015.5 |
| 20260508030541 | 52 | 0 | 0.0 | 0.0 | 0.00 | 0.00 | 0.00 | 70 | 1015.4 |
| 20260508030104 | 52 | 0 | 0.0 | 0.0 | 0.00 | 0.00 | 0.00 | 70 | 1015.4 |
| 20260508025544 | 53 | 0 | 0.0 | 0.0 | 0.00 | 0.00 | 0.00 | 69 | 1015.4 |
| 20260508025042 | 53 | 0 | 0.0 | 0.0 | 0.00 | 0.00 | 0.00 | 68 | 1015.2 |
| 20260508024604 | 53 | 0 | 0.0 | 0.0 | 0.00 | 0.00 | 0.00 | 68 | 1015.2 |
| 20260508024042 | 53 | 0 | 0.0 | 0.0 | 0.00 | 0.00 | 0.00 | 67 | 1015.1 |
| 20260508023542 | 53 | 0 | 0.0 | 0.0 | 0.00 | 0.00 | 0.00 | 67 | 1015.0 |
| 20260508023052 | 53 | 0 | 0.0 | 0.0 | 0.00 | 0.00 | 0.00 | 66 | 1015.0 |
| 20260508022544 | 53 | 0 | 0.0 | 0.0 | 0.00 | 0.00 | 0.00 | 66 | 1014.8 |
| 20260508022042 | 54 | 0 | 0.0 | 0.0 | 0.00 | 0.00 | 0.00 | 66 | 1014.8 |
| 20260508021551 | 54 | 0 | 0.0 | 0.0 | 0.00 | 0.00 | 0.00 | 65 | 1014.7 |
| 20260508021042 | 54 | 0 | 0.0 | 0.0 | 0.00 | 0.00 | 0.00 | 64 | 1014.7 |
| 20260508020541 | 54 | 0 | 0.0 | 0.0 | 0.00 | 0.00 | 0.00 | 64 | 1014.6 |
| 20260508020104 | 55 | 0 | 0.0 | 0.0 | 0.00 | 0.00 | 0.00 | 64 | 1014.5 |
| 20260508015541 | 55 | 0 | 0.0 | 0.0 | 0.00 | 0.00 | 0.00 | 63 | 1014.5 |
| 20260508015041 | 55 | 0 | 0.0 | 0.0 | 0.00 | 0.00 | 0.00 | 63 | 1014.5 |
| 20260508014553 | 55 | 0 | 0.0 | 0.0 | 0.00 | 0.00 | 0.00 | 62 | 1014.4 |
| 20260508014042 | 56 | 0 | 0.0 | 0.0 | 0.00 | 0.00 | 0.00 | 62 | 1014.4 |
| 20260508013544 | 56 | 0 | 0.0 | 2.0 | 0.00 | 0.00 | 0.00 | 60 | 1014.6 |
| 20260508013053 | 57 | 0 | 0.0 | 2.0 | 0.00 | 0.00 | 0.00 | 59 | 1014.5 |
| 20260508012542 | 57 | 0 | 0.0 | 2.0 | 0.00 | 0.00 | 0.00 | 58 | 1014.4 |
| 20260508012042 | 57 | 0 | 0.0 | 0.0 | 0.00 | 0.00 | 0.00 | 58 | 1014.2 |
| 20260508011554 | 58 | 0 | 0.0 | 0.0 | 0.00 | 0.00 | 0.00 | 57 | 1014.3 |
| 20260508011042 | 58 | 0 | 0.0 | 1.0 | 0.00 | 0.00 | 0.00 | 57 | 1014.3 |
| 20260508010542 | 59 | 0 | 0.0 | 2.0 | 0.00 | 0.00 | 0.00 | 56 | 1014.2 |
| 20260508010053 | 59 | 0 | 0.0 | 2.0 | 0.00 | 0.00 | 0.00 | 56 | 1014.1 |
| 20260508005544 | 59 | 167 | 0.0 | 1.0 | 0.00 | 0.00 | 0.00 | 56 | 1014.0 |
| 20260508005044 | 59 | 202 | 0.0 | 1.0 | 0.00 | 0.00 | 0.00 | 56 | 1014.0 |
| 20260508004553 | 60 | 0 | 0.0 | 1.0 | 0.00 | 0.00 | 0.00 | 55 | 1013.9 |
| 20260508004042 | 60 | 0 | 0.0 | 3.0 | 0.00 | 0.00 | 0.00 | 54 | 1014.1 |
| 20260508003541 | 61 | 166 | 0.0 | 3.0 | 0.00 | 0.00 | 0.00 | 53 | 1014.0 |
| 20260508003053 | 61 | 163 | 1.0 | 4.0 | 0.00 | 0.00 | 0.00 | 51 | 1014.0 |
| 20260508002541 | 62 | 185 | 0.0 | 5.0 | 0.00 | 0.00 | 0.00 | 52 | 1014.0 |
| 20260508002041 | 62 | 0 | 0.0 | 5.0 | 0.00 | 0.00 | 0.00 | 52 | 1013.9 |
| 20260508001553 | 62 | 162 | 0.0 | 4.0 | 0.00 | 0.00 | 0.00 | 51 | 1013.9 |
| 20260508001041 | 62 | 115 | 0.0 | 4.0 | 0.00 | 0.00 | 0.00 | 51 | 1014.0 |
| 20260508000544 | 63 | 240 | 0.0 | 4.0 | 0.00 | 0.00 | 0.00 | 49 | 1014.0 |
| 20260508000051 | 63 | 0 | 0.0 | 4.0 | 0.00 | 0.00 | 0.00 | 51 | 1014.0 |
| 20260507235542 | 63 | 210 | 1.0 | 4.0 | 0.00 | 0.00 | 0.00 | 49 | 1014.0 |
| 20260507235042 | 63 | 161 | 1.0 | 4.0 | 0.00 | 0.00 | 0.00 | 48 | 1014.0 |
| 20260507234556 | 64 | 211 | 1.0 | 4.0 | 0.00 | 0.00 | 0.00 | 48 | 1014.0 |
| 20260507234046 | 64 | 235 | 2.0 | 4.0 | 0.00 | 0.00 | 0.00 | 44 | 1014.0 |
| 20260507233542 | 65 | 250 | 1.0 | 4.0 | 0.00 | 0.00 | 0.00 | 45 | 1014.0 |
| 20260507233052 | 65 | 186 | 1.0 | 6.0 | 0.00 | 0.00 | 0.00 | 45 | 1014.0 |
| 20260507232541 | 65 | 257 | 1.0 | 8.0 | 0.00 | 0.00 | 0.00 | 44 | 1014.0 |
| 20260507232042 | 65 | 262 | 2.0 | 8.0 | 0.00 | 0.00 | 0.00 | 43 | 1014.1 |
| 20260507231553 | 65 | 270 | 3.0 | 8.0 | 0.00 | 0.00 | 0.00 | 45 | 1014.1 |
| 20260507231044 | 66 | 219 | 2.0 | 7.0 | 0.00 | 0.00 | 0.00 | 46 | 1014.2 |
| 20260507230546 | 65 | 229 | 2.0 | 7.0 | 0.00 | 0.00 | 0.00 | 43 | 1014.2 |
| 20260507230054 | 65 | 242 | 2.0 | 9.0 | 0.00 | 0.00 | 0.00 | 44 | 1014.2 |
| 20260507225542 | 65 | 168 | 3.0 | 10.0 | 0.00 | 0.00 | 0.00 | 45 | 1014.4 |
| 20260507225044 | 65 | 269 | 4.0 | 10.0 | 0.00 | 0.00 | 0.00 | 45 | 1014.5 |
| 20260507224553 | 65 | 241 | 3.0 | 7.0 | 0.00 | 0.00 | 0.00 | 42 | 1014.6 |
| 20260507224043 | 66 | 250 | 2.0 | 8.0 | 0.00 | 0.00 | 0.00 | 42 | 1014.6 |
| 20260507223541 | 66 | 181 | 2.0 | 13.0 | 0.00 | 0.00 | 0.00 | 42 | 1014.7 |
| 20260507223051 | 66 | 236 | 6.0 | 13.0 | 0.00 | 0.00 | 0.00 | 43 | 1014.7 |
| 20260507222542 | 66 | 271 | 3.0 | 9.0 | 0.00 | 0.00 | 0.00 | 45 | 1014.8 |
| 20260507222043 | 66 | 120 | 3.0 | 8.0 | 0.00 | 0.00 | 0.00 | 41 | 1014.9 |
| 20260507221551 | 65 | 181 | 2.0 | 7.0 | 0.00 | 0.00 | 0.00 | 42 | 1014.9 |
| 20260507221044 | 65 | 240 | 1.0 | 12.0 | 0.00 | 0.00 | 0.00 | 44 | 1014.9 |
| 20260507220541 | 65 | 276 | 3.0 | 12.0 | 0.00 | 0.00 | 0.00 | 45 | 1014.9 |
| 20260507220055 | 65 | 257 | 5.0 | 12.0 | 0.00 | 0.00 | 0.00 | 42 | 1014.8 |
| 20260507215545 | 65 | 207 | 3.0 | 12.0 | 0.00 | 0.00 | 0.00 | 41 | 1014.9 |
| 20260507215043 | 66 | 263 | 3.0 | 9.0 | 0.00 | 0.00 | 0.00 | 42 | 1014.9 |
| 20260507214551 | 66 | 228 | 3.0 | 9.0 | 0.00 | 0.00 | 0.00 | 40 | 1014.8 |
| 20260507214044 | 65 | 186 | 2.0 | 8.0 | 0.00 | 0.00 | 0.00 | 41 | 1014.7 |
| 20260507213541 | 65 | 225 | 2.0 | 8.0 | 0.00 | 0.00 | 0.00 | 39 | 1014.8 |
| 20260507213056 | 66 | 245 | 2.0 | 8.0 | 0.00 | 0.00 | 0.00 | 42 | 1014.9 |
| 20260507212543 | 65 | 186 | 2.0 | 8.0 | 0.00 | 0.00 | 0.00 | 42 | 1014.9 |
| 20260507212043 | 65 | 251 | 2.0 | 9.0 | 0.00 | 0.00 | 0.00 | 39 | 1014.9 |
| 20260507211557 | 65 | 262 | 3.0 | 10.0 | 0.00 | 0.00 | 0.00 | 42 | 1015.0 |
| 20260507211045 | 64 | 240 | 4.0 | 10.0 | 0.00 | 0.00 | 0.00 | 41 | 1015.0 |
| 20260507210542 | 64 | 261 | 2.0 | 8.0 | 0.00 | 0.00 | 0.00 | 41 | 1015.1 |
| 20260507210103 | 64 | 0 | 3.0 | 14.0 | 0.00 | 0.00 | 0.00 | 40 | 1015.1 |
| 20260507205542 | 64 | 298 | 7.0 | 14.0 | 0.00 | 0.00 | 0.00 | 41 | 1015.2 |
| 20260507205044 | 64 | 286 | 4.0 | 12.0 | 0.00 | 0.00 | 0.00 | 39 | 1015.3 |
| 20260507204600 | 65 | 259 | 4.0 | 13.0 | 0.00 | 0.00 | 0.00 | 40 | 1015.4 |
| 20260507204045 | 65 | 240 | 2.0 | 13.0 | 0.00 | 0.00 | 0.00 | 43 | 1015.5 |
| 20260507203542 | 65 | 277 | 4.0 | 13.0 | 0.00 | 0.00 | 0.00 | 38 | 1015.6 |
| 20260507203100 | 64 | 182 | 2.0 | 10.0 | 0.00 | 0.00 | 0.00 | 38 | 1015.6 |
| 20260507202541 | 64 | 277 | 3.0 | 13.0 | 0.00 | 0.00 | 0.00 | 45 | 1015.6 |
| 20260507202044 | 64 | 261 | 7.0 | 13.0 | 0.00 | 0.00 | 0.00 | 39 | 1015.8 |
| 20260507201552 | 65 | 217 | 4.0 | 8.0 | 0.00 | 0.00 | 0.00 | 43 | 1015.8 |
| 20260507201044 | 65 | 201 | 3.0 | 6.0 | 0.00 | 0.00 | 0.00 | 42 | 1015.9 |
| 20260507200543 | 65 | 146 | 2.0 | 9.0 | 0.00 | 0.00 | 0.00 | 40 | 1015.9 |
| 20260507200053 | 64 | 153 | 3.0 | 9.0 | 0.00 | 0.00 | 0.00 | 46 | 1016.0 |
| 20260507195542 | 63 | 275 | 4.0 | 9.0 | 0.00 | 0.00 | 0.00 | 38 | 1016.0 |
| 20260507195045 | 63 | 255 | 2.0 | 11.0 | 0.00 | 0.00 | 0.00 | 40 | 1016.0 |
| 20260507194559 | 63 | 278 | 5.0 | 11.0 | 0.00 | 0.00 | 0.00 | 38 | 1016.1 |
| 20260507194042 | 63 | 234 | 2.0 | 10.0 | 0.00 | 0.00 | 0.00 | 40 | 1016.3 |
| 20260507193543 | 63 | 288 | 2.0 | 13.0 | 0.00 | 0.00 | 0.00 | 39 | 1016.3 |
| 20260507193049 | 63 | 269 | 4.0 | 13.0 | 0.00 | 0.00 | 0.00 | 38 | 1016.4 |
| 20260507192541 | 63 | 257 | 6.0 | 13.0 | 0.00 | 0.00 | 0.00 | 37 | 1016.6 |
| 20260507192042 | 63 | 256 | 1.0 | 12.0 | 0.00 | 0.00 | 0.00 | 41 | 1016.5 |
| 20260507191552 | 63 | 217 | 5.0 | 12.0 | 0.00 | 0.00 | 0.00 | 41 | 1016.5 |
| 20260507191041 | 63 | 236 | 7.0 | 12.0 | 0.00 | 0.00 | 0.00 | 41 | 1016.5 |
| 20260507190543 | 63 | 260 | 2.0 | 10.0 | 0.00 | 0.00 | 0.00 | 41 | 1016.5 |
| 20260507190055 | 63 | 279 | 3.0 | 10.0 | 0.00 | 0.00 | 0.00 | 36 | 1016.6 |
| 20260507185541 | 63 | 187 | 3.0 | 7.0 | 0.00 | 0.00 | 0.00 | 41 | 1016.6 |
| 20260507185041 | 62 | 235 | 2.0 | 12.0 | 0.00 | 0.00 | 0.00 | 44 | 1016.5 |
| 20260507184556 | 62 | 161 | 5.0 | 12.0 | 0.00 | 0.00 | 0.00 | 36 | 1016.6 |
| 20260507184046 | 62 | 265 | 3.0 | 12.0 | 0.00 | 0.00 | 0.00 | 40 | 1016.7 |
| 20260507183543 | 63 | 267 | 5.0 | 12.0 | 0.00 | 0.00 | 0.00 | 37 | 1016.9 |
| 20260507183056 | 63 | 208 | 6.0 | 11.0 | 0.00 | 0.00 | 0.00 | 45 | 1017.0 |
| 20260507182542 | 63 | 242 | 2.0 | 6.0 | 0.00 | 0.00 | 0.00 | 40 | 1016.9 |
| 20260507182043 | 63 | 140 | 2.0 | 6.0 | 0.00 | 0.00 | 0.00 | 38 | 1016.9 |
| 20260507181555 | 63 | 205 | 3.0 | 9.0 | 0.00 | 0.00 | 0.00 | 40 | 1017.2 |
| 20260507181042 | 62 | 201 | 3.0 | 9.0 | 0.00 | 0.00 | 0.00 | 42 | 1017.2 |
| 20260507180542 | 62 | 267 | 4.0 | 9.0 | 0.00 | 0.00 | 0.00 | 36 | 1017.3 |
| 20260507180100 | 62 | 223 | 2.0 | 13.0 | 0.00 | 0.00 | 0.00 | 40 | 1017.2 |
| 20260507175543 | 61 | 225 | 3.0 | 13.0 | 0.00 | 0.00 | 0.00 | 40 | 1017.4 |
| 20260507175042 | 62 | 276 | 2.0 | 10.0 | 0.00 | 0.00 | 0.00 | 43 | 1017.4 |
| 20260507174607 | 62 | 305 | 2.0 | 7.0 | 0.00 | 0.00 | 0.00 | 39 | 1017.6 |
| 20260507174045 | 61 | 223 | 2.0 | 13.0 | 0.00 | 0.00 | 0.00 | 40 | 1017.8 |
| 20260507173541 | 61 | 209 | 6.0 | 13.0 | 0.00 | 0.00 | 0.00 | 38 | 1017.9 |
| 20260507173058 | 61 | 288 | 5.0 | 12.0 | 0.00 | 0.00 | 0.00 | 37 | 1017.9 |
| 20260507172541 | 62 | 265 | 4.0 | 12.0 | 0.00 | 0.00 | 0.00 | 40 | 1018.0 |
| 20260507172041 | 62 | 113 | 3.0 | 10.0 | 0.00 | 0.00 | 0.00 | 38 | 1018.0 |
| 20260507171611 | 62 | 169 | 1.0 | 10.0 | 0.00 | 0.00 | 0.00 | 39 | 1018.0 |
| 20260507171041 | 62 | 232 | 2.0 | 10.0 | 0.00 | 0.00 | 0.00 | 37 | 1018.1 |
| 20260507170542 | 61 | 265 | 3.0 | 10.0 | 0.00 | 0.00 | 0.00 | 39 | 1018.1 |
| 20260507170053 | 62 | 254 | 4.0 | 10.0 | 0.00 | 0.00 | 0.00 | 39 | 1018.1 |
| 20260507165542 | 62 | 138 | 2.0 | 8.0 | 0.00 | 0.00 | 0.00 | 43 | 1018.1 |
| 20260507165042 | 62 | 245 | 2.0 | 8.0 | 0.00 | 0.00 | 0.00 | 44 | 1018.2 |
| 20260507164556 | 62 | 146 | 2.0 | 7.0 | 0.00 | 0.00 | 0.00 | 39 | 1018.2 |
| 20260507164042 | 61 | 205 | 2.0 | 7.0 | 0.00 | 0.00 | 0.00 | 40 | 1018.2 |
| 20260507163541 | 61 | 204 | 1.0 | 4.0 | 0.00 | 0.00 | 0.00 | 39 | 1018.2 |
| 20260507163100 | 60 | 150 | 1.0 | 4.0 | 0.00 | 0.00 | 0.00 | 37 | 1018.3 |
| 20260507162542 | 60 | 240 | 2.0 | 9.0 | 0.00 | 0.00 | 0.00 | 41 | 1018.3 |
| 20260507162042 | 59 | 0 | 0.0 | 9.0 | 0.00 | 0.00 | 0.00 | 42 | 1018.4 |
| 20260507161559 | 59 | 263 | 2.0 | 9.0 | 0.00 | 0.00 | 0.00 | 43 | 1018.4 |
| 20260507161041 | 58 | 268 | 2.0 | 9.0 | 0.00 | 0.00 | 0.00 | 41 | 1018.5 |
| 20260507160543 | 58 | 258 | 3.0 | 9.0 | 0.00 | 0.00 | 0.00 | 43 | 1018.5 |
| 20260507160058 | 58 | 240 | 2.0 | 6.0 | 0.00 | 0.00 | 0.00 | 44 | 1018.6 |
| 20260507155541 | 58 | 294 | 1.0 | 9.0 | 0.00 | 0.00 | 0.00 | 42 | 1018.7 |
| 20260507155044 | 58 | 220 | 0.0 | 10.0 | 0.00 | 0.00 | 0.00 | 47 | 1018.7 |
| 20260507154552 | 58 | 266 | 6.0 | 11.0 | 0.00 | 0.00 | 0.00 | 43 | 1018.8 |
| 20260507154041 | 59 | 306 | 4.0 | 11.0 | 0.00 | 0.00 | 0.00 | 47 | 1018.7 |
| 20260507153541 | 58 | 0 | 1.0 | 9.0 | 0.00 | 0.00 | 0.00 | 46 | 1018.7 |
| 20260507153101 | 57 | 192 | 1.0 | 11.0 | 0.00 | 0.00 | 0.00 | 45 | 1018.7 |
| 20260507152542 | 58 | 269 | 2.0 | 11.0 | 0.00 | 0.00 | 0.00 | 44 | 1018.7 |
| 20260507152042 | 58 | 264 | 6.0 | 11.0 | 0.00 | 0.00 | 0.00 | 43 | 1018.5 |
| 20260507151555 | 58 | 262 | 2.0 | 5.0 | 0.00 | 0.00 | 0.00 | 44 | 1018.6 |
| 20260507151042 | 58 | 245 | 1.0 | 8.0 | 0.00 | 0.00 | 0.00 | 48 | 1018.6 |
| 20260507150542 | 58 | 182 | 1.0 | 8.0 | 0.00 | 0.00 | 0.00 | 48 | 1018.6 |
| 20260507150057 | 58 | 119 | 2.0 | 8.0 | 0.00 | 0.00 | 0.00 | 45 | 1018.7 |
| 20260507145544 | 58 | 122 | 0.0 | 6.0 | 0.00 | 0.00 | 0.00 | 47 | 1018.6 |
| 20260507145043 | 58 | 189 | 1.0 | 5.0 | 0.00 | 0.00 | 0.00 | 48 | 1018.7 |
| 20260507144554 | 57 | 216 | 1.0 | 5.0 | 0.00 | 0.00 | 0.00 | 47 | 1018.8 |
| 20260507144044 | 57 | 244 | 1.0 | 5.0 | 0.00 | 0.00 | 0.00 | 47 | 1018.9 |
| 20260507143543 | 57 | 244 | 1.0 | 6.0 | 0.00 | 0.00 | 0.00 | 52 | 1019.0 |
| 20260507143055 | 57 | 201 | 1.0 | 6.0 | 0.00 | 0.00 | 0.00 | 51 | 1019.0 |
| 20260507142545 | 57 | 160 | 1.0 | 5.0 | 0.00 | 0.00 | 0.00 | 50 | 1018.9 |
| 20260507142044 | 56 | 174 | 1.0 | 4.0 | 0.00 | 0.00 | 0.00 | 51 | 1018.8 |
| 20260507141552 | 56 | 205 | 0.0 | 4.0 | 0.00 | 0.00 | 0.00 | 56 | 1019.0 |
| 20260507141043 | 55 | 219 | 1.0 | 6.0 | 0.00 | 0.00 | 0.00 | 54 | 1019.0 |
| 20260507140544 | 55 | 211 | 1.0 | 6.0 | 0.00 | 0.00 | 0.00 | 57 | 1019.0 |
| 20260507140106 | 54 | 140 | 1.0 | 4.0 | 0.00 | 0.00 | 0.00 | 51 | 1019.0 |
| 20260507135544 | 54 | 0 | 0.0 | 3.0 | 0.00 | 0.00 | 0.00 | 59 | 1019.1 |
| 20260507135043 | 53 | 144 | 0.0 | 3.0 | 0.00 | 0.00 | 0.00 | 64 | 1018.9 |
| 20260507134552 | 52 | 130 | 1.0 | 3.0 | 0.00 | 0.00 | 0.00 | 65 | 1019.0 |
| 20260507134044 | 51 | 0 | 0.0 | 2.0 | 0.00 | 0.00 | 0.00 | 68 | 1019.1 |
| 20260507133544 | 50 | 119 | 0.0 | 2.0 | 0.00 | 0.00 | 0.00 | 70 | 1019.1 |
| 20260507133058 | 49 | 0 | 0.0 | 2.0 | 0.00 | 0.00 | 0.00 | 73 | 1019.1 |
| 20260507132543 | 48 | 150 | 0.0 | 0.0 | 0.00 | 0.00 | 0.00 | 77 | 1019.0 |
| 20260507132043 | 47 | 0 | 0.0 | 0.0 | 0.00 | 0.00 | 0.00 | 80 | 1019.0 |
| 20260507131553 | 46 | 0 | 0.0 | 0.0 | 0.00 | 0.00 | 0.00 | 81 | 1019.0 |
| 20260507131044 | 45 | 0 | 0.0 | 0.0 | 0.00 | 0.00 | 0.00 | 83 | 1019.0 |